sat.trackr.live / text

‹ back to catalog

STARLINK-2131

NORAD 47728 · 2021-017G

PAYLOAD ACTIVE UNKNOWN

§ Identity

Operator
Country
US
Launch date
2021-03-04
Launch site
AFETR
Launch vehicle
Mass (kg)
RCS (m²)

Purposes: comms

External: N2YO · Heavens-Above · Gunter

§ Orbital elements

Epoch: 2026-09-20T04:00:03.000096Z

Period
90.65 min
Inclination
53.0621°
Eccentricity
0.0008470
Mean motion
15.88613581 rev/d
Perigee alt
300.5 km
Apogee alt
311.8 km
Semi-major
6,684.3 km
B*
5.0343e-4
RAAN
341.3393°
Arg perigee
347.5054°
Mean anomaly
341.1716°
Rev number
589

§ Raw data

STARLINK-21311 47728U 21017G   26263.16670139  .00146072  00000+0  50343-3 0  99982 47728  53.0621 341.3393 0008470 347.5054 341.1716 15.88613581  5891

JSON: /api/v1/satellites/47728 · /tle

For live sub-satellite position, see the globe view (requires WebGL).

§ Visibility from observer

Set your observer location to see the next 7 days of passes ≥ 10°. The values pass through the URL so the page stays shareable.

No JS? Fill the form by hand. The geolocation button needs JavaScript.